Location: Unspecified
(0.0000°N, 0.0000°E)
Time: 16:57:32
(UTC+00:00)

Vanguard 3 - Pass Details

Date: 11 February 2023
Orbit: 509 x 3249 km, 33.3° (Epoch: 20 March)

Event Time Altitude Azimuth Distance (km) Brightness Sun altitude
Rises 01:56:38 0° 291° (WNW) 6,737 - -61.0°
Reaches altitude 10° 02:01:03 10° 286° (WNW) 5,931 - -60.0°
Maximum altitude 02:19:40 51° 216° (SW) 3,732 - -55.9°
Exits shadow 02:23:32 47° 187° (S) 3,777 10.3 -55.0°
Drops below altitude 10° 02:36:18 10° 143° (SE) 5,303 11.6 -52.1°
Sets 02:40:03 0° 138° (SE) 6,008 12.1 -51.3°
